sat.trackr.live / text

‹ back to catalog

STARLINK-30792

NORAD 58220 · 2023-170Q

PAYLOAD ACTIVE UNKNOWN

§ Identity

Operator
Country
US
Launch date
2023-11-03
Launch site
AFETR
Launch vehicle
Mass (kg)
RCS (m²)

Purposes: comms

External: N2YO · Heavens-Above · Gunter

§ Orbital elements

Epoch: 2026-05-24T23:35:56.917824Z

Period
95.55 min
Inclination
42.9991°
Eccentricity
0.0004015
Mean motion
15.06990915 rev/d
Perigee alt
542.6 km
Apogee alt
548.2 km
Semi-major
6,923.5 km
B*
1.0072e-3
RAAN
139.0030°
Arg perigee
93.8497°
Mean anomaly
266.2806°
Rev number
14,178

§ Raw data

STARLINK-307921 58220U 23170Q   26144.98329766  .00015155  00000+0  10072-2 0  99952 58220  42.9991 139.0030 0004015  93.8497 266.2806 15.06990915141785

JSON: /api/v1/satellites/58220 · /tle

For live sub-satellite position, see the globe view (requires WebGL).

§ Visibility from observer

Set your observer location to see the next 7 days of passes ≥ 10°. The values pass through the URL so the page stays shareable.

No JS? Fill the form by hand. The geolocation button needs JavaScript.